Henderson, NV

6:08 AM PDT on August 20, 2017 (GMT -0700)
Henderson

Weather History for KHND - October, 2013

Change the Weather History Date:

Wednesday, October 23, 2013

  Actual Average (KLAS) Record (KLAS)
Temperature  
Mean Temperature 66 °F -  
Max Temperature 81 °F 78 °F 94 °F (1959)
Min Temperature 52 °F 52 °F 37 °F (1949)
Cooling Degree Days 2    
Growing Degree Days 16 (Base 50)    
Moisture  
Dew Point 24 °F    
Average Humidity 22    
Maximum Humidity 35    
Minimum Humidity 11    
Precipitation  
Precipitation 0.00 in - - ()
Sea Level Pressure  
Sea Level Pressure 29.96 in    
Wind  
Wind Speed 5 mph (SSE)    
Max Wind Speed 9 mph    
Max Gust Speed -    
Visibility 10 miles    
Events      
Averages and records for this station are not official NWS values.
T = Trace of Precipitation, MM = Missing Value Source: NWS Daily Summary

Daily Weather History Graph

Daily Weather History Graph

Search for Another Location

Airport or City:

Trip Planner

Search our weather history database for the weather conditions in past years. The results will help you decide how hot, cold, wet, or windy it might be!

Date:

Astronomy

Oct. 23, 2013 Rise Set
Actual Time 6:54 AM PDT 5:54 PM PDT
Civil Twilight 6:28 AM PDT 6:20 PM PDT
Nautical Twilight 5:58 AM PDT 6:50 PM PDT
Astronomical Twilight 5:28 AM PDT 7:19 PM PDT
Moon 9:33 PM PDT (10/23) 11:10 AM PDT (10/23)
Length of Visible Light 11h 51m
Length of Day
10h 59m
Waning Gibbous, 78% of the Moon is Illuminated
Oct 23
Waning Gibbous
Oct 26
Last Quarter
Nov 3
New
Nov 9
First Quarter
Nov 17
Full

Hourly Weather History & Observations

Time (PDT) Temp. Dew Point Humidity Pressure Visibility Wind Dir Wind Speed Gust Speed Precip Events Conditions
12:56 AM 59.9 °F 22.1 °F 23% 29.98 in 10.0 mi South 9.2 mph - N/A   Clear
1:56 AM 56.8 °F 22.1 °F 26% 29.98 in 10.0 mi SSE 9.2 mph - N/A   Clear
2:56 AM 54.9 °F 24.1 °F 30% 29.97 in 10.0 mi South 5.8 mph - N/A   Clear
3:56 AM 52.0 °F 25.2 °F 35% 29.97 in 10.0 mi Calm Calm - N/A   Clear
4:56 AM 54.0 °F 26.1 °F 34% 29.97 in 10.0 mi SSE 3.5 mph - N/A   Clear
5:56 AM 55.9 °F 25.2 °F 31% 29.98 in 10.0 mi SSE 5.8 mph - N/A   Clear
6:56 AM 54.0 °F 25.2 °F 33% 30.00 in 10.0 mi Calm Calm - N/A   Clear
7:56 AM 55.9 °F 25.2 °F 31% 30.01 in 10.0 mi SSE 5.8 mph - N/A   Clear
8:56 AM 63.9 °F 25.2 °F 23% 30.02 in 10.0 mi Calm Calm - N/A   Clear
9:56 AM 70.0 °F 24.1 °F 18% 30.01 in 10.0 mi NNE 4.6 mph - N/A   Clear
10:56 AM 72.9 °F 24.1 °F 16% 30.00 in 10.0 mi Variable 3.5 mph - N/A   Clear
11:56 AM 74.8 °F 23.0 °F 14% 29.99 in 10.0 mi Variable 3.5 mph - N/A   Clear
12:56 PM 75.9 °F 22.1 °F 13% 29.96 in 10.0 mi Calm Calm - N/A   Clear
1:56 PM 77.0 °F 22.1 °F 13% 29.94 in 10.0 mi Calm Calm - N/A   Clear
2:56 PM 79.9 °F 22.1 °F 12% 29.93 in 10.0 mi Calm Calm - N/A   Clear
3:56 PM 81.0 °F 21.0 °F 11% 29.92 in 10.0 mi NNE 3.5 mph - N/A   Clear
4:56 PM 79.0 °F 22.1 °F 12% 29.91 in 10.0 mi Calm Calm - N/A   Clear
5:56 PM 77.0 °F 25.2 °F 15% 29.90 in 10.0 mi Calm Calm - N/A   Clear
6:56 PM 68.9 °F 28.0 °F 22% 29.92 in 10.0 mi Calm Calm - N/A   Clear
7:56 PM 63.9 °F 27.1 °F 25% 29.93 in 10.0 mi Calm Calm - N/A   Clear
8:56 PM 63.9 °F 27.1 °F 25% 29.92 in 10.0 mi South 6.9 mph - N/A   Clear
9:56 PM 61.9 °F 25.2 °F 25% 29.92 in 10.0 mi SSE 8.1 mph - N/A   Clear
10:56 PM 59.9 °F 23.0 °F 24% 29.92 in 10.0 mi South 4.6 mph - N/A   Clear
11:56 PM 61.0 °F 25.2 °F 25% 29.91 in 10.0 mi SSE 9.2 mph - N/A   Clear